Wind_Speed
9 11 12 12 12 13 13 13 14 13 12 13 16 18 20 21 21 17 1 11 4 2 5 4 2 2 2 2 2 3 3 4 3 4 3 4 3 4 0 3 2 5 3 3 2 3 3 8 3 6 4 3 3 7
9 9 10 11 11 12 12 12 12 12 11 11 13 16 17 20 20 18 3 10 10 3 5 5 15 18 12 6 4 2 4 3 4 4 1 3 2 1 3 2 3 0 5 4 4 4 5 4 7 3 2 1 3 3
9 8 8 11 11 10 10 11 11 12 12 11 11 14 16 17 18 19 10 11 5 3 5 4 4 4 12 21 10 3 2 3 2 3 4 2 2 4 3 5 1 3 2 3 3 2 5 3 1 1 1 2 4 4
10 10 10 12 12 11 11 11 11 12 11 11 12 13 14 15 15 18 12 5 2 2 1 6 10 4 4 13 16 11 4 3 5 3 3 3 3 3 4 2 3 4 2 4 1 1 1 6 1 2 4 4 4 4
9 10 10 11 12 12 10 10 11 11 12 12 11 11 12 14 13 15 2 5 5 1 2 5 19 6 6 7 11 12 6 3 2 2 2 3 2 3 1 2 2 3 6 4 5 7 5 4 5 4 3 4 6 6
8 9 10 11 12 13 11 9 9 10 11 11 10 9 11 13 12 4 2 3 8 3 2 4 6 5 3 7 10 7 6 3 3 4 3 2 3 3 3 3 5 4 4 6 5 7 6 5 7 5 4 6 5 5
9 9 9 10 11 12 13 10 9 10 10 10 10 11 11 10 10 2 3 2 7 8 2 4 5 4 2 4 2 2 3 2 3 2 1 3 2 4 3 4 6 9 8 5 4 6 2 4 4 4 5 8 12 13
11 10 9 11 11 11 13 13 11 10 11 10 10 10 9 9 12 5 2 3 3 1 2 1 4 5 3 1 0 1 2 2 3 3 1 2 1 2 2 7 6 5 5 4 5 3 3 2 5 7 9 9 8 8
12 12 11 11 11 11 13 14 13 11 10 9 9 9 3 1 1 0 2 1 1 1 1 1 2 3 3 1 1 3 2 1 2 2 3 3 0 3 7 7 6 7 7 5 3 3 5 6 8 8 7 7 7 7
13 13 13 12 11 12 13 14 15 12 8 7 4 2 1 1 1 1 0 3 3 2 2 3 1 3 2 1 1 3 2 2 2 4 2 3 4 4 4 4 6 7 7 6 3 5 5 8 7 7 7 6 6 7
14 14 14 13 11 12 13 14 14 10 2 2 3 1 4 1 1 2 0 1 1 2 3 4 5 2 2 3 3 2 3 1 1 4 3 1 3 3 1 4 5 5 6 7 6 7 7 7 7 7 8 8 12 13
15 16 14 13 13 11 10 11 9 4 2 3 5 6 3 2 2 1 3 1 3 4 3 3 4 5 3 2 3 2 2 2 3 0 2 2 4 2 4 4 5 5 6 6 9 8 10 10 13 10 9 11 16 20
16 15 14 11 10 12 13 10 4 4 4 2 2 1 2 1 1 4 4 2 2 3 3 2 2 3 0 3 3 3 3 3 1 1 3 4 3 4 6 4 5 8 9 8 9 14 16 16 21 18 14 21 23 21
16 15 10 10 17 12 9 3 3 1 1 1 2 2 4 3 4 4 4 3 4 3 2 2 1 2 0 3 2 3 2 2 0 2 4 3 6 6 5 4 3 7 7 8 9 15 16 17 17 21 20 22 21 18
15 10 8 16 16 11 6 1 2 2 1 2 2 3 5 4 3 4 4 2 3 1 2 2 3 3 3 3 2 3 1 3 4 4 3 4 5 6 6 4 5 7 7 8 13 11 15 17 17 19 21 21 23 23
13 2 8 14 14 9 5 4 0 2 2 2 3 2 3 1 3 3 2 2 2 2 1 3 2 2 1 3 1 4 2 4 3 3 3 2 5 5 3 4 6 9 11 12 15 15 16 17 17 18 22 22 22 21
6 1 9 13 15 4 2 2 3 2 2 3 3 2 3 4 4 3 2 3 1 2 2 3 2 3 3 3 2 3 4 3 4 2 2 4 5 4 5 5 8 11 12 15 15 18 18 22 20 16 10 18 16 16
3 9 13 13 14 6 2 1 2 2 4 4 3 3 2 2 3 3 3 3 2 3 3 5 4 3 3 3 3 2 3 1 1 2 2 4 4 6 8 6 9 10 12 15 17 19 17 16 12 12 14 16 15 17
18 17 13 9 7 5 3 2 3 3 4 3 4 2 3 3 3 5 3 3 1 2 4 2 3 3 4 3 4 3 3 3 3 3 3 6 9 10 11 9 9 9 12 15 16 14 17 19 18 16 17 15 10 15
7 5 6 4 5 2 2 3 2 3 3 3 3 3 3 4 3 3 3 2 3 2 3 3 4 4 4 4 4 4 4 3 4 2 3 4 13 11 13 10 10 11 15 19 18 18 15 16 17 16 16 15 13 13
5 4 5 2 3 3 2 3 3 3 3 3 2 2 4 1 2 4 4 3 2 4 4 4 4 5 5 6 8 7 3 6 5 5 4 4 7 12 13 11 12 11 11 12 8 14 13 12 17 23 20 16 15 16
4 5 2 3 3 3 3 6 3 4 3 3 3 3 3 2 3 3 3 2 3 5 5 4 4 5 3 3 6 12 10 10 6 3 3 5 3 3 4 8 10 7 11 12 13 12 14 17 19 19 18 19 18 10
3 2 2 2 2 2 5 2 2 3 2 3 2 3 3 3 3 3 2 3 4 5 8 7 8 10 6 9 7 7 10 12 5 6 6 4 1 2 6 10 10 9 8 15 17 16 16 20 22 20 15 8 7 10
1 1 3 3 4 4 2 3 3 3 3 3 3 3 3 3 2 2 3 3 4 2 4 7 6 3 2 3 3 4 10 9 6 4 0 6 2 2 4 7 9 11 13 14 12 13 17 19 18 13 11 14 12 11
2 3 2 4 2 3 4 3 3 2 3 3 3 3 3 2 2 2 2 3 3 2 3 4 4 4 4 3 1 6 12 12 6 3 4 6 5 2 5 7 9 9 14 12 12 12 15 15 14 13 12 12 12 11
3 4 5 3 3 3 3 2 2 2 3 3 3 3 2 1 3 2 2 4 3 3 2 3 6 4 3 4 4 4 13 11 10 6 9 11 7 3 0 2 4 10 13 11 11 10 11 12 12 11 11 12 13 13
3 4 4 3 2 2 3 3 3 3 3 3 3 3 2 2 2 1 2 2 2 5 11 8 8 7 6 10 13 10 9 18 16 15 13 15 6 2 2 1 4 9 10 9 10 10 10 11 11 11 12 13 13 13
3 3 4 2 2 2 3 3 3 4 3 3 0 2 2 1 1 2 3 6 14 23 18 13 9 17 17 13 14 13 9 9 12 9 12 8 7 5 1 3 6 9 11 10 9 10 11 12 13 14 15 16 15 14
3 3 1 4 4 4 4 5 4 3 3 3 2 2 3 2 2 3 13 18 21 17 13 12 11 9 12 10 10 9 13 23 17 7 8 4 2 7 6 2 7 11 13 14 15 15 14 13 14 16 17 17 15 15
4 4 3 4 4 5 5 5 3 3 3 4 3 2 2 3 14 20 27 23 9 8 7 8 7 1 12 10 8 12 21 26 29 18 7 6 12 11 14 11 9 9 10 12 13 12 12 14 16 18 19 18 16 15
2 4 3 4 4 4 5 4 6 4 3 4 4 5 7 3 7 16 16 17 11 5 4 1 2 4 5 5 7 10 7 23 29 28 20 12 17 14 15 17 14 11 9 9 11 12 11 12 14 16 16 16 15 15
3 6 4 4 4 5 5 5 4 4 3 4 5 4 2 1 3 3 7 7 3 6 5 7 6 4 4 3 3 13 19 16 24 23 19 15 17 17 15 18 19 16 12 11 10 11 13 15 15 15 14 15 15 15
3 3 4 3 3 3 2 2 3 3 3 3 3 5 5 5 4 2 4 7 2 5 2 1 3 6 6 4 7 12 19 21 21 19 18 17 17 15 15 17 20 20 17 14 12 10 10 11 11 10 10 11 10 10
Wind_Direction
288 288 292 297 297 299 300 299 302 312 324 335 341 349 356 1 8 7 29 27 27 178 274 232 260 180 32 68 138 262 59 356 48 70 127 191 147 230 144 230 204 180 150 215 119 105 217 347 340 101 203 295 302 350
328 314 300 307 305 296 298 306 300 299 311 319 333 336 346 352 358 5 328 346 338 176 242 263 267 261 249 220 149 354 166 161 181 93 111 107 136 85 149 262 348 318 177 178 165 202 206 334 96 98 152 224 329 348
339 337 326 315 312 312 310 310 310 303 303 307 316 321 331 341 348 355 337 348 347 27 308 347 279 294 246 226 230 122 299 205 172 171 155 151 135 128 162 240 266 308 147 107 95 242 146 123 144 45 230 232 267 305
335 332 329 327 318 303 301 310 313 313 308 304 307 312 320 329 339 341 334 324 19 95 36 282 336 292 314 215 219 216 165 85 95 71 97 128 149 163 198 192 158 205 72 136 85 295 16 233 220 266 308 305 324 334
334 336 335 330 329 329 307 300 312 317 321 316 305 309 314 322 331 338 68 88 27 124 239 281 311 301 263 197 193 199 146 104 83 67 82 201 154 115 48 74 249 186 172 154 219 203 173 207 180 214 223 220 238 245
327 331 331 332 333 331 324 306 310 310 311 315 320 319 314 323 329 337 26 158 43 18 59 327 308 297 330 194 152 135 135 105 102 136 196 232 249 110 130 202 256 226 203 180 202 188 195 192 199 195 238 249 256 249
329 327 328 330 331 334 332 318 302 298 293 301 300 295 301 310 314 256 227 146 319 336 76 317 319 277 230 97 48 74 55 102 116 133 169 171 228 104 129 194 239 216 204 185 159 128 223 214 224 240 261 280 292 287
337 326 322 324 326 331 332 328 305 310 313 306 309 299 297 292 291 291 25 169 204 140 83 266 274 339 169 103 131 23 86 28 0 167 80 178 38 90 234 244 265 191 160 168 175 182 204 268 275 271 285 294 292 281
334 332 327 321 321 326 326 326 321 311 308 310 317 303 298 221 232 341 175 249 267 109 186 163 221 245 354 86 128 39 73 109 319 192 233 114 205 219 225 216 204 178 166 188 198 237 271 254 262 269 271 281 273 280
333 332 329 322 318 319 318 322 322 315 304 310 312 6 355 345 109 217 121 28 19 349 58 224 230 265 106 52 0 91 28 176 165 246 101 138 244 277 269 223 142 149 156 155 181 253 245 263 262 270 263 269 260 263
337 334 328 330 324 316 314 313 318 339 49 27 8 256 333 281 273 33 254 148 190 261 202 236 190 229 278 118 194 186 171 114 115 259 147 304 285 251 210 120 143 169 194 218 225 245 245 239 255 263 268 264 268 273
330 332 336 334 331 331 332 326 311 326 16 336 296 301 312 37 47 206 227 282 192 231 215 193 222 192 268 112 104 354 121 68 221 255 78 273 254 228 172 176 196 210 232 259 266 261 268 271 273 266 263 263 275 281
333 337 337 342 341 325 312 305 262 276 301 264 231 299 81 244 44 209 209 250 258 223 227 218 233 184 6 61 70 80 88 226 32 50 231 228 247 199 199 198 224 240 253 269 280 273 271 273 283 275 265 276 279 279
341 341 347 347 343 339 323 275 196 204 243 240 177 308 181 212 235 203 204 208 245 224 284 171 97 130 41 73 139 106 223 94 327 233 238 241 215 206 206 230 231 265 283 280 275 276 272 274 276 280 280 279 277 278
341 347 3 1 3 2 357 343 172 204 270 250 133 224 225 241 272 249 232 240 267 322 19 58 42 82 26 95 30 102 132 238 209 225 230 237 205 192 229 245 262 277 280 279 284 290 291 292 293 293 291 288 286 280
338 338 0 358 359 3 34 29 350 279 259 249 241 277 275 22 311 336 294 263 308 79 32 46 54 58 89 111 118 197 171 225 245 216 224 176 175 200 235 258 272 280 283 289 293 295 296 294 288 289 292 288 285 280
339 347 343 351 348 350 360 330 336 329 308 288 260 261 227 238 245 258 289 278 112 69 105 74 349 71 316 107 250 190 212 232 229 238 188 183 173 204 230 255 278 298 297 300 303 306 298 295 295 291 284 294 296 295
305 300 320 332 340 344 311 263 282 263 253 241 238 253 220 238 287 300 294 311 44 130 141 167 157 179 236 216 230 241 244 245 204 194 193 198 212 220 217 245 287 298 305 308 307 302 298 297 288 282 285 290 305 302
310 302 289 294 308 331 311 219 193 262 253 264 261 236 228 244 242 251 270 286 279 159 113 122 153 190 224 222 206 234 188 189 194 212 222 224 210 216 239 261 284 299 310 311 306 304 306 306 290 282 292 299 277 291
325 336 321 261 232 279 265 256 220 266 271 262 279 266 214 217 220 222 247 221 161 183 169 185 206 212 192 227 198 224 202 163 130 157 264 266 241 245 256 267 280 306 316 313 316 323 315 320 318 312 304 295 294 295
330 351 350 164 206 235 288 297 252 222 257 253 258 238 262 274 228 204 225 167 149 201 210 209 208 231 211 239 234 211 221 175 183 174 201 236 254 241 265 286 295 310 303 305 305 310 310 312 308 313 311 301 299 296
262 310 278 209 233 215 247 226 231 279 255 253 295 222 250 257 236 222 168 153 216 217 199 189 204 209 210 221 220 225 240 208 186 182 219 245 295 318 292 301 325 301 307 306 305 298 310 319 321 321 317 310 313 311
304 277 267 245 240 231 266 204 240 247 248 259 246 239 233 233 223 129 193 215 238 222 200 197 195 200 210 234 203 217 208 190 161 213 247 292 229 271 324 332 330 326 321 325 332 331 335 343 344 339 341 25 56 53
173 275 255 216 195 256 275 239 221 262 252 241 247 265 253 228 170 176 241 243 237 209 173 184 158 122 81 140 197 208 198 190 197 250 184 136 114 335 322 325 346 349 344 322 332 352 1 5 1 12 59 61 46 56
241 230 202 267 244 231 228 252 224 248 254 252 245 268 265 35 53 332 259 290 309 265 205 162 164 168 171 183 130 210 190 192 181 169 182 182 170 265 323 343 352 358 358 355 358 9 16 25 28 45 51 66 71 66
243 216 193 238 202 198 228 280 15 311 291 261 274 276 318 295 188 242 350 305 320 337 327 199 171 167 212 190 169 176 199 188 187 151 185 193 194 150 198 331 332 351 7 8 5 18 31 38 39 53 61 64 76 84
248 249 217 228 234 266 251 255 235 239 263 258 282 305 311 260 232 97 270 261 291 309 338 332 216 194 181 195 210 203 193 192 196 207 201 194 174 143 26 23 2 1 18 26 27 35 46 59 56 70 76 75 80 86
253 281 230 280 318 257 263 251 253 227 235 239 306 264 254 287 139 248 248 308 335 335 341 341 249 213 220 220 217 217 211 201 189 178 178 173 151 148 121 67 54 43 44 41 43 55 70 79 84 89 90 82 86 99
252 264 289 264 238 251 230 213 246 236 203 166 220 281 275 240 236 241 299 306 314 324 343 359 26 200 218 242 252 231 191 165 145 161 186 188 178 203 185 161 99 77 71 73 70 67 72 81 92 97 97 99 99 101
237 177 216 248 220 225 230 195 234 246 195 213 219 286 302 264 269 293 290 286 263 243 279 283 331 13 208 201 161 176 188 189 191 184 181 193 207 200 187 184 158 122 94 82 77 77 86 92 94 98 103 100 97 93
265 164 229 233 257 245 238 248 258 262 253 232 225 237 253 280 302 294 276 276 275 205 177 325 329 53 104 167 181 175 199 209 215 221 220 225 197 196 197 189 180 160 135 100 87 90 93 95 95 97 96 98 100 105
207 205 210 235 255 257 255 239 239 226 229 205 233 190 194 170 257 278 353 340 127 136 146 151 109 58 75 127 246 243 238 210 215 222 221 205 188 195 200 194 184 176 162 139 120 114 107 101 95 92 100 107 110 110
238 225 224 260 273 271 249 235 251 258 218 230 236 184 163 166 221 291 25 24 29 155 168 345 344 4 20 3 221 229 217 194 180 174 174 172 172 186 192 197 191 183 176 164 155 154 145 127 115 112 118 123 124 124
Height
821 819 819 819 817 816 815 813 812 810 808 806 804 801 798 795 791 788 787 786 785 789 778 771 768 769 771 776 780 773 777 776 786 800 806 812 813 808 806 798 794 810 818 823 825 822 818 788 785 800 805 797 795 793
819 816 816 816 815 813 812 811 809 808 807 805 803 800 798 795 792 789 787 786 783 782 776 769 765 763 765 765 773 775 776 778 780 797 801 805 805 810 813 814 793 806 804 812 814 815 802 796 796 793 795 797 794 793
818 816 815 814 813 811 810 808 807 805 804 803 802 800 798 796 793 790 787 784 782 781 774 768 760 757 757 760 763 774 775 771 773 774 790 798 798 807 814 813 795 790 790 804 806 803 801 797 795 794 794 794 792 790
817 815 813 812 810 809 807 806 804 803 801 800 799 798 796 794 792 789 787 785 785 786 788 770 757 754 755 756 759 762 764 766 768 773 786 795 797 794 807 798 800 794 789 801 806 800 800 798 795 793 792 790 790 789
816 814 812 811 809 806 804 803 802 800 799 798 797 795 794 792 790 788 785 786 786 789 791 778 760 753 752 755 757 759 762 768 774 780 787 791 791 792 800 800 801 790 794 802 805 791 792 791 790 790 791 791 789 787
816 814 812 810 807 805 803 801 800 798 797 796 795 794 792 791 788 787 787 787 786 786 788 787 765 756 753 754 756 760 762 768 774 778 784 784 779 786 800 807 787 783 782 781 785 782 785 784 785 785 787 786 784 782
815 812 811 808 806 804 801 799 798 796 795 793 792 792 791 789 788 789 789 786 785 786 788 788 779 758 754 756 760 762 763 768 771 779 781 781 780 783 797 801 779 778 776 777 776 780 784 781 783 782 782 780 778 776
813 811 809 807 805 802 800 798 796 794 792 790 789 788 787 787 786 784 783 783 784 785 787 792 782 769 755 765 768 764 770 772 772 776 780 780 782 786 792 779 773 773 775 777 778 778 780 779 780 779 777 776 774 772
812 809 807 805 803 800 798 796 794 791 789 788 786 785 784 785 785 784 784 784 784 788 790 792 789 777 759 765 766 768 770 780 778 778 780 777 787 787 775 771 772 771 774 776 778 778 779 780 778 776 774 773 771 768
811 808 805 802 800 798 797 794 792 789 787 786 786 785 785 784 785 785 784 785 785 786 788 789 782 778 766 769 771 773 777 780 785 778 775 781 783 772 769 767 768 771 773 775 779 780 778 777 774 771 769 767 764 762
809 806 803 800 798 796 794 792 790 787 786 786 786 786 784 783 784 785 787 788 789 787 785 779 777 774 762 768 772 771 773 776 784 780 777 785 784 774 768 769 769 770 771 772 772 771 770 769 768 766 763 761 758 755
808 804 801 798 796 794 792 791 789 788 788 788 789 787 784 784 787 787 787 785 784 779 772 771 767 768 763 760 767 772 772 779 782 777 780 784 779 770 770 769 769 769 769 768 767 765 764 763 760 759 757 754 751 748
805 802 799 797 795 792 790 789 788 789 788 788 787 786 785 786 793 786 780 780 780 768 762 761 763 761 761 762 772 773 775 784 777 781 781 779 772 768 768 768 767 766 765 764 763 761 759 756 754 752 749 746 744 741
804 801 798 796 793 789 787 786 787 788 788 787 783 794 786 781 779 776 774 768 762 758 756 759 761 760 763 764 774 771 776 777 782 784 778 772 766 765 767 766 766 764 762 761 759 756 753 750 747 744 742 740 737 735
803 800 798 795 792 789 787 787 788 788 788 785 786 792 780 772 768 764 762 761 756 754 753 757 761 763 769 769 775 775 775 778 777 777 773 763 761 764 765 764 764 763 760 757 753 752 749 745 743 739 737 734 731 728
802 800 799 796 793 791 789 788 789 789 787 786 783 779 773 773 768 763 760 759 755 756 758 759 765 767 771 772 773 773 776 776 770 768 761 760 761 762 763 762 761 758 756 754 751 749 745 742 738 734 730 727 723 721
800 800 799 796 793 792 791 790 789 789 788 785 780 776 775 774 769 765 761 758 755 760 767 766 774 772 774 776 777 772 773 765 760 759 758 758 759 760 760 759 757 756 754 751 748 744 740 735 732 728 724 720 717 716
801 799 798 797 795 792 792 791 790 788 786 781 781 771 770 768 765 762 761 758 758 762 764 768 770 774 774 772 771 764 759 758 758 758 758 757 756 756 756 755 753 752 750 747 744 740 735 730 727 723 719 716 714 712
801 798 796 796 796 794 793 790 790 786 782 778 773 770 769 766 762 760 759 757 756 756 760 765 764 769 768 763 759 757 757 756 756 757 756 753 753 753 752 751 750 748 746 743 740 736 731 727 723 719 715 713 711 708
797 796 795 794 795 795 792 789 788 786 779 774 770 767 764 761 757 756 755 756 758 758 758 760 761 757 755 752 749 748 745 747 751 757 757 754 751 751 750 748 746 743 741 739 735 732 728 723 717 714 711 709 707 704
797 796 795 795 795 795 794 788 784 780 778 775 764 763 758 754 753 754 753 752 756 755 755 749 746 744 743 743 743 743 744 746 747 749 751 752 748 747 746 745 743 741 740 737 733 729 726 721 716 712 708 704 701 699
797 796 795 795 794 793 792 788 786 779 776 768 764 757 754 753 750 748 745 749 748 743 741 740 739 739 740 741 739 740 740 742 744 745 746 746 746 746 745 743 741 739 736 734 731 728 722 718 714 709 704 700 698 696
796 796 795 793 793 790 787 782 781 774 772 762 754 750 747 743 738 738 742 741 735 727 725 727 727 730 733 734 736 737 738 740 743 744 743 744 744 743 743 741 740 738 735 731 729 725 721 716 711 706 701 700 699 697
796 796 792 788 789 789 783 777 775 771 761 758 754 746 738 738 735 736 736 733 722 719 721 722 724 730 732 733 734 734 737 739 741 741 742 742 743 743 742 741 738 737 735 731 727 724 720 716 712 707 706 702 704 703
797 794 793 791 783 780 777 770 766 764 758 753 746 741 737 735 738 738 734 726 720 717 716 718 721 724 728 730 732 733 735 737 737 740 741 741 742 743 742 740 739 737 735 731 727 725 722 719 715 712 711 710 709 709
794 786 787 775 771 774 771 763 762 761 758 747 743 739 737 735 735 735 733 730 725 722 720 719 720 725 727 726 728 731 731 734 736 738 739 740 741 742 742 742 740 737 735 733 730 727 724 721 720 718 716 716 713 713
787 777 775 773 773 770 766 763 762 760 757 750 746 743 740 735 731 734 730 727 726 722 721 719 718 718 719 722 724 726 729 731 733 734 737 739 740 741 742 742 741 739 736 734 732 730 728 726 724 723 722 721 721 720
780 775 774 772 771 767 763 759 755 753 751 748 745 743 737 734 731 731 728 724 723 720 718 714 713 715 718 719 721 725 728 730 733 735 739 741 740 741 742 743 742 740 738 736 735 733 731 730 728 728 727 727 727 728
779 776 774 772 771 768 762 758 750 744 741 743 741 739 735 732 729 727 722 722 721 720 718 715 714 715 717 718 721 722 724 727 732 737 739 740 740 741 743 744 744 742 741 740 739 737 736 734 733 733 733 733 735 735
771 770 771 765 759 756 750 747 742 736 736 735 734 733 732 728 723 722 718 718 719 720 719 718 715 714 713 715 718 723 724 724 725 727 732 735 734 737 740 743 744 745 745 744 743 743 742 740 740 740 740 741 742 743
762 766 762 757 751 744 739 736 733 732 731 730 728 729 727 724 719 716 713 712 715 717 716 714 714 713 711 714 717 720 723 723 723 723 725 727 731 735 738 741 744 746 747 747 746 746 746 746 746 746 746 747 748 748
754 755 753 748 740 733 732 731 728 727 723 723 721 723 723 724 724 716 713 711 712 712 713 714 712 712 713 713 714 716 716 716 718 722 725 727 731 734 735 738 742 745 747 749 750 751 751 751 751 751 752 753 753 754
747 745 744 743 738 730 725 726 723 720 719 717 715 714 717 720 720 716 715 713 712 712 713 712 712 712 711 712 712 713 715 715 719 722 725 728 731 733 735 737 740 745 748 750 752 753 754 755 755 756 757 758 759 759